Dewpoint
73 74 75 75 76 75 75 75 75 75 75 75 75 75 74 74 74 74 75 75 75 75 76 76 76 76 75 76 76 76 76 76 76 76 76 76 76 76 76 75 75 75 75 75 75 75 75 75 75 75 75 75 75 75 75 76 76 76 75 75 75 75 74 75 75 75 75 75 75 75 75 75 75 75 75 74 74 73 73 74 75 75 75 74 74
73 74 75 75 75 75 75 75 75 75 75 75 75 74 74 74 74 74 75 75 76 76 76 76 76 76 76 76 76 76 76 76 76 76 75 76 76 75 75 75 75 75 75 75 76 76 75 75 75 75 75 75 75 75 76 76 76 75 75 75 75 75 75 74 74 74 74 74 75 75 74 75 75 75 74 73 73 74 74 74 75 74 74 74 74
74 75 75 75 75 75 75 75 75 75 75 75 75 74 74 74 74 74 75 75 76 76 76 76 76 76 76 76 76 76 76 76 76 76 75 75 76 76 75 75 75 75 75 76 76 76 76 76 75 75 76 76 75 75 75 75 75 76 74 75 74 75 75 75 74 74 73 73 74 74 74 75 75 74 74 74 74 74 74 74 74 74 73 74 73
74 74 74 75 75 76 75 75 75 75 76 75 75 75 75 74 74 74 74 75 76 75 76 76 76 76 76 76 76 76 76 76 76 75 75 75 75 75 75 75 75 75 75 75 75 76 76 75 75 75 75 75 75 75 75 76 75 75 74 75 75 75 75 75 74 75 74 73 74 75 75 72 73 74 74 74 74 74 73 74 74 73 73 73 74
73 74 74 74 74 76 75 75 75 76 76 75 75 75 75 74 74 74 74 75 75 75 75 76 76 75 76 76 76 76 76 75 75 75 75 75 75 75 76 75 75 75 75 75 75 75 75 75 75 75 75 75 75 75 75 75 75 75 74 75 75 75 74 74 74 74 74 74 74 75 72 72 72 73 73 74 74 74 74 74 74 73 73 73 73
73 74 74 74 74 75 75 75 75 75 75 75 75 75 75 74 74 74 74 75 75 75 75 76 75 75 76 76 76 76 76 76 75 75 75 75 75 75 75 75 75 75 75 75 75 75 75 75 75 75 74 74 75 75 75 75 74 74 75 75 75 75 75 74 75 74 74 74 73 73 71 72 72 72 73 73 73 73 73 73 73 73 73 73 74
73 74 74 74 74 75 76 75 75 75 75 75 76 75 75 75 74 74 75 75 75 75 75 76 76 76 76 76 76 76 76 76 76 76 75 75 76 76 75 75 75 75 75 75 75 75 75 75 75 75 75 75 75 75 75 75 75 75 75 75 75 74 75 74 73 74 75 75 73 72 71 72 73 72 72 72 73 73 73 73 73 73 73 74 74
73 74 74 74 74 75 75 75 75 75 76 76 75 75 75 75 74 74 75 75 75 76 76 76 76 76 76 76 76 76 76 76 76 75 76 75 75 76 75 75 75 75 75 76 76 76 75 76 76 75 75 75 75 75 74 74 75 75 75 74 74 74 74 74 74 75 75 73 73 72 71 71 71 72 72 71 72 73 73 73 72 72 73 74 74
73 73 74 74 74 75 75 74 75 75 75 75 76 75 75 75 74 75 75 75 75 76 76 75 76 76 76 75 75 75 76 75 76 75 75 76 75 75 75 75 75 75 75 76 76 76 76 76 75 75 75 75 75 75 75 74 74 74 74 74 73 73 74 74 74 75 74 73 73 72 71 71 72 72 72 72 72 71 72 73 73 72 72 72 73
72 73 73 74 74 75 75 75 74 74 75 75 75 75 75 75 75 75 75 76 75 75 75 75 75 76 76 76 75 75 75 76 76 75 75 75 75 75 75 74 75 76 76 76 76 76 76 76 76 75 75 75 75 75 75 75 75 75 75 74 73 74 74 74 74 75 72 73 73 73 73 74 73 73 73 71 71 71 72 72 74 72 72 72 72
73 73 73 74 74 75 75 75 75 75 75 75 75 75 75 75 75 75 75 75 75 75 75 75 75 75 76 76 76 75 75 76 75 75 75 75 75 75 75 75 75 76 76 76 76 76 76 76 75 75 75 75 75 75 75 75 75 75 75 75 75 72 75 76 76 74 72 72 73 73 74 75 73 73 73 72 72 71 71 71 71 71 71 72 72
73 73 73 74 75 75 75 75 75 75 75 75 75 75 75 75 75 75 75 75 75 75 75 75 75 75 75 76 76 75 75 75 76 75 76 75 75 75 75 75 75 75 75 75 75 76 76 75 75 75 75 74 74 74 74 74 75 75 75 75 76 76 75 77 76 73 72 73 73 73 74 73 73 73 74 73 73 72 72 72 72 71 70 72 71
73 73 74 75 75 75 75 75 75 75 75 75 75 75 75 75 75 75 75 75 75 75 75 75 75 75 75 76 75 75 75 75 76 75 76 75 75 75 75 75 75 75 75 76 75 75 75 75 75 75 75 75 75 75 74 74 74 75 75 76 76 77 75 76 74 73 73 73 73 73 73 72 73 75 73 73 73 73 73 73 73 73 73 71 71
73 73 74 75 75 76 76 76 75 75 76 75 75 75 75 75 75 74 75 75 75 75 75 75 75 75 75 75 76 76 75 75 76 76 75 75 75 75 75 75 75 76 76 76 75 75 75 75 74 75 75 75 75 75 75 75 74 75 75 76 76 77 77 75 74 72 72 71 73 72 72 74 72 75 73 72 72 71 72 72 72 72 72 72 72
73 74 74 74 75 75 76 76 76 76 75 75 75 76 76 75 75 75 75 75 75 75 75 75 74 74 75 75 75 75 76 76 75 76 76 76 75 75 76 76 76 76 75 75 75 75 75 75 75 75 75 75 75 75 75 75 75 75 75 76 77 77 77 74 71 71 71 72 72 73 71 72 73 72 72 71 71 72 71 72 72 72 72 72 72
73 74 74 74 74 75 75 76 76 76 75 75 76 76 75 75 74 75 75 75 75 75 75 75 74 74 75 75 75 75 76 76 76 76 76 75 75 76 76 76 75 75 74 74 75 75 75 76 75 75 76 75 76 76 76 76 75 75 75 76 77 76 76 75 71 71 71 71 72 73 71 73 72 72 72 71 71 71 72 71 72 72 72 72 73
73 74 74 74 74 74 74 75 75 76 75 75 76 75 75 75 75 75 75 75 75 75 75 74 74 74 75 76 75 76 76 76 76 76 76 76 76 75 75 75 75 74 74 75 75 75 75 75 76 76 76 76 76 76 76 76 76 76 77 77 77 77 75 73 70 70 71 73 73 73 72 72 73 73 72 74 73 73 73 73 73 72 73 73 72
73 74 73 74 74 74 75 74 74 74 74 75 75 75 75 75 75 75 75 75 75 74 74 75 75 74 75 75 75 75 75 76 76 75 76 76 76 75 75 75 75 75 75 75 75 75 75 75 76 76 76 76 76 76 77 77 77 78 78 78 78 77 76 74 71 72 72 74 73 74 74 75 73 73 73 73 73 74 74 74 74 73 73 73 73
73 73 73 74 74 74 74 74 75 74 74 74 74 74 75 75 75 75 75 75 75 74 74 74 74 75 75 75 76 76 76 76 76 76 76 75 75 76 75 75 75 75 75 75 75 75 75 76 76 76 76 77 77 77 77 78 78 79 79 78 77 76 75 73 72 73 74 74 73 73 73 74 73 73 72 72 72 73 74 74 75 73 74 74 75
72 73 73 73 74 73 74 74 74 74 74 74 74 74 75 75 75 75 75 75 75 74 74 75 75 75 75 76 76 75 75 75 76 75 76 75 75 75 75 75 74 75 75 75 75 74 76 76 76 77 77 77 77 77 78 78 78 79 79 79 76 74 69 70 70 71 73 73 74 73 74 74 73 73 73 74 73 74 75 75 75 75 74 74 75
72 73 73 73 73 74 74 74 74 74 74 74 74 74 74 75 74 75 75 75 75 74 75 75 74 75 76 75 75 74 74 75 75 75 75 75 75 76 75 75 75 75 74 75 75 75 75 76 77 77 77 78 78 78 79 79 79 78 79 79 78 70 68 69 70 73 74 74 76 74 76 74 73 73 74 74 74 74 75 75 75 75 74 75 75
72 72 73 73 73 73 73 74 74 74 74 74 74 74 75 75 74 74 74 74 74 74 75 75 76 74 76 74 73 74 73 74 74 76 75 74 76 76 75 76 75 74 74 74 75 76 76 77 77 77 78 78 78 78 77 78 77 79 77 76 69 67 67 67 68 71 73 73 74 75 75 74 74 74 74 74 74 75 75 75 74 74 74 74 74
72 73 73 73 73 73 73 73 73 74 73 73 74 74 74 73 73 74 74 75 76 75 74 74 73 73 72 72 73 72 74 74 75 76 76 76 76 75 75 76 75 74 74 74 75 76 76 77 78 78 79 78 78 76 76 74 73 75 73 68 67 67 68 67 68 69 70 72 73 75 74 74 75 74 74 74 75 75 75 75 75 74 74 74 74
72 72 72 73 73 73 73 73 73 73 73 73 73 74 73 73 73 73 73 74 73 74 73 72 72 72 72 71 72 72 72 72 76 75 75 75 75 77 75 75 74 75 75 76 77 77 77 77 77 77 79 79 77 76 75 73 70 65 66 67 67 67 67 67 68 68 70 73 72 74 74 75 75 74 74 75 75 75 75 75 75 75 75 75 75
71 72 72 72 72 72 73 73 73 73 73 73 73 73 73 73 73 73 73 73 73 73 73 72 72 72 72 72 72 72 72 73 73 73 74 74 73 73 73 73 74 73 76 73 74 74 75 74 75 76 75 76 76 75 74 68 67 66 66 67 68 68 68 69 68 68 69 71 73 75 75 76 76 76 75 75 76 76 75 75 75 75 75 75 75
71 71 71 72 72 72 73 73 73 73 73 73 73 74 73 73 72 73 73 73 73 73 73 72 72 72 72 73 72 73 72 72 72 73 74 73 72 73 73 73 72 73 74 73 73 73 73 74 74 74 74 75 76 75 72 69 66 66 66 67 68 68 69 69 69 69 69 71 74 76 76 76 77 77 76 76 76 76 76 76 76 75 75 75 75
70 70 71 71 72 72 73 73 73 73 73 73 73 74 73 73 72 73 72 73 73 73 72 72 73 72 72 73 74 73 72 72 73 73 74 74 73 72 71 72 71 71 73 73 73 73 73 72 73 72 71 70 68 69 69 67 66 65 66 67 68 68 69 69 69 69 70 71 75 76 76 77 77 77 77 77 77 76 76 76 76 76 76 75 75
69 70 71 71 72 72 72 72 72 72 72 73 73 73 72 72 72 74 73 74 73 73 72 72 73 73 73 74 75 74 73 73 74 73 73 74 73 72 71 70 71 71 72 73 73 73 72 72 72 71 67 65 65 66 66 66 65 65 65 66 67 68 69 69 69 69 69 70 74 77 77 77 77 77 77 77 77 77 77 77 76 76 76 76 75
69 70 70 71 71 72 72 72 72 72 72 73 73 72 73 72 73 73 73 74 73 73 72 72 73 74 74 75 75 74 74 74 73 73 73 73 73 71 70 69 69 70 71 71 73 72 72 72 72 70 68 65 65 65 66 66 66 66 65 65 67 68 69 69 69 69 69 70 73 76 77 77 77 77 77 77 77 77 77 77 77 76 76 76 76
69 69 69 70 70 71 71 71 72 72 72 72 72 72 72 72 72 72 73 74 73 73 73 73 74 74 74 74 74 74 74 73 73 72 72 72 72 71 71 69 69 70 72 71 72 74 72 72 71 71 71 69 65 66 67 64 65 66 66 64 65 66 68 69 69 69 69 71 71 75 76 77 76 76 77 77 76 76 77 77 77 76 76 76 76
69 69 68 69 71 70 71 72 72 73 72 72 72 72 72 72 72 72 73 73 73 74 73 73 74 74 74 74 74 74 74 74 73 71 71 71 71 71 70 70 71 71 73 71 73 74 74 73 71 70 70 70 69 67 67 63 64 64 66 65 64 66 67 67 67 68 69 71 71 74 76 76 76 76 76 76 76 76 76 76 76 77 77 76 76
68 68 68 69 70 70 71 72 72 72 72 72 73 72 72 72 72 72 72 72 73 73 73 74 74 73 74 74 73 73 74 73 72 71 71 71 70 71 71 71 71 72 73 73 71 73 74 73 73 74 73 71 70 69 70 62 62 61 63 64 63 65 66 66 66 67 69 71 71 72 73 76 77 77 76 76 76 77 77 77 76 77 77 77 76
67 68 69 70 70 71 71 71 72 72 72 72 72 72 72 72 72 72 72 72 73 73 73 73 73 73 74 73 73 73 74 72 71 71 72 71 71 71 71 73 72 72 73 74 74 73 73 71 70 73 72 73 71 69 70 66 62 64 62 62 62 63 64 65 65 65 66 69 70 71 72 75 77 79 78 78 76 76 76 76 76 76 77 77 77
67 68 69 69 70 71 71 72 72 72 72 72 72 72 72 72 72 72 73 72 73 73 74 73 73 74 73 72 72 73 73 72 72 71 71 70 71 71 71 71 72 73 74 74 72 72 72 71 70 71 75 71 68 68 68 65 63 64 62 60 61 62 63 63 62 61 64 66 69 70 72 73 76 75 77 79 79 77 76 76 77 77 76 77 77
69 68 68 69 70 71 71 71 72 71 72 72 72 71 72 73 72 72 73 73 73 72 73 73 73 73 73 73 73 73 73 73 73 72 71 73 72 72 73 73 74 76 73 73 75 74 72 70 72 71 70 71 69 71 66 65 65 64 65 65 60 62 62 61 62 63 62 64 68 68 69 70 73 73 75 75 79 79 78 77 75 76 76 76 77
68 68 68 69 69 70 71 70 71 71 72 72 71 71 72 72 72 73 73 73 73 71 72 72 72 73 73 72 73 73 74 74 74 74 74 73 73 72 72 74 76 75 76 75 74 71 72 72 73 71 66 67 70 67 68 65 65 64 66 66 67 69 65 64 63 63 61 65 66 67 70 72 72 73 77 75 75 76 78 79 77 76 77 77 77
68 68 68 68 69 69 70 69 70 70 71 72 71 71 72 71 71 72 73 73 73 72 71 71 71 72 72 72 72 73 74 74 75 76 74 73 72 72 73 74 76 75 75 74 72 73 72 70 69 74 69 68 70 68 66 70 64 65 65 64 67 71 66 67 64 61 69 64 68 68 68 70 72 77 76 74 74 73 75 79 78 77 77 78 76
68 68 68 68 68 69 69 69 69 71 71 71 71 71 71 71 71 72 74 73 73 72 71 71 72 72 72 72 72 73 74 74 75 75 75 75 73 72 73 75 78 77 75 75 74 73 71 70 67 71 74 71 69 68 66 69 64 62 66 64 66 67 66 66 69 77 68 67 68 67 67 69 70 68 69 72 71 71 73 77 79 79 79 78 77
68 68 68 69 69 69 70 70 70 70 71 71 71 71 71 72 72 74 74 73 73 72 71 70 72 72 72 72 72 73 75 75 76 77 77 76 75 74 75 76 77 76 75 74 73 75 75 72 69 67 71 72 70 71 67 70 68 69 72 68 66 67 69 69 73 69 69 67 68 73 67 68 71 71 71 71 71 71 73 74 74 76 78 79 78
68 68 69 69 69 69 70 71 71 71 72 72 72 72 72 73 72 73 73 73 72 72 71 70 71 71 72 71 72 73 75 75 75 76 75 76 74 75 75 77 77 76 74 72 73 73 72 70 71 66 67 71 73 72 70 68 68 68 70 68 65 66 67 70 69 67 73 67 71 73 68 68 71 68 67 69 71 72 72 73 76 74 75 78 78
68 68 68 68 69 69 70 70 71 72 72 71 71 71 71 71 71 72 71 71 71 71 71 70 69 70 71 71 73 74 74 75 75 76 75 78 76 76 76 75 77 78 77 75 75 75 74 72 75 75 68 69 69 70 69 67 64 61 66 67 68 68 73 73 66 68 69 70 69 69 69 68 68 69 68 70 71 71 72 73 74 75 75 76 78
67 67 67 68 69 69 69 70 71 71 71 71 71 71 71 71 70 70 70 70 70 70 69 70 68 69 71 72 74 73 74 74 76 75 76 77 76 76 76 76 76 76 77 78 77 79 73 72 71 71 71 68 68 69 68 65 64 59 60 63 66 65 71 68 66 70 70 71 69 66 66 64 63 64 67 69 70 72 70 72 74 74 75 76 76
66 66 67 68 69 69 70 70 70 70 70 70 70 70 70 71 69 69 68 69 69 70 69 70 70 69 71 72 74 73 73 74 75 76 76 77 76 76 77 77 76 77 74 74 76 75 74 73 73 69 69 70 71 71 70 64 62 68 67 61 60 59 65 65 68 69 69 71 69 66 69 64 64 65 69 68 68 71 72 72 72 72 74 76 75
66 66 67 68 68 70 70 70 70 70 70 70 71 69 70 71 70 69 69 68 68 70 69 69 70 70 71 72 74 73 73 74 74 75 77 76 76 77 76 76 75 77 75 74 74 73 73 71 73 74 70 65 68 68 73 69 68 62 57 61 62 63 56 58 65 67 68 68 68 67 68 65 65 69 69 69 69 68 71 73 72 70 72 74 75
66 66 67 68 68 69 69 69 69 70 70 71 70 70 71 71 70 70 70 69 70 69 68 68 70 71 70 72 73 73 74 73 74 74 76 75 75 76 76 76 76 76 77 75 74 75 74 72 74 74 72 68 69 71 73 70 66 65 65 60 58 58 57 59 63 63 69 63 63 69 68 69 66 70 68 69 68 68 71 71 69 70 71 73 73
65 66 67 67 68 68 69 69 69 69 69 70 70 70 71 69 69 68 67 66 66 67 66 66 68 70 69 72 73 73 73 74 74 74 76 76 76 76 75 75 76 76 78 74 74 74 73 72 73 73 73 73 70 71 70 73 75 73 66 63 62 59 60 63 60 59 65 71 68 68 67 64 69 70 69 68 68 68 71 68 69 69 72 73 73
65 66 66 66 68 68 68 68 69 69 69 70 70 71 70 69 68 67 66 66 65 66 67 67 69 70 70 73 73 73 73 74 73 74 75 77 76 76 75 76 76 75 77 75 74 73 72 73 76 75 74 76 72 68 71 71 72 72 70 69 69 70 69 62 61 64 58 62 64 68 66 64 72 70 71 70 71 68 68 71 69 70 70 72 72
65 66 66 67 68 68 68 68 69 70 69 70 70 70 69 69 68 67 67 66 65 65 67 68 69 70 71 73 72 73 73 74 73 73 74 76 77 76 76 75 76 75 76 74 72 72 74 75 76 76 77 77 73 70 70 72 68 69 72 67 69 69 67 67 67 59 59 57 60 63 67 66 67 71 73 70 70 68 69 70 70 71 71 72 73
65 66 66 68 68 68 68 68 69 70 69 71 70 70 70 69 67 67 67 68 66 67 69 70 69 71 70 72 72 72 73 73 74 73 73 75 77 75 75 75 75 75 76 74 72 74 74 72 73 74 74 75 74 74 72 70 71 69 67 65 67 67 68 69 69 67 64 61 60 63 64 66 67 69 69 71 70 69 71 72 72 72 73 73 73
65 66 66 68 68 68 68 69 69 69 69 72 71 70 71 70 67 68 67 68 69 68 69 69 69 70 70 72 72 72 72 72 73 73 74 75 75 76 75 74 75 74 77 73 72 73 73 73 74 75 75 73 73 76 72 71 73 73 71 68 66 67 66 64 67 67 66 62 59 60 63 64 62 65 69 70 70 70 71 72 71 72 73 72 73
64 65 66 67 68 68 68 69 69 69 71 72 71 70 71 70 68 68 68 68 69 69 68 69 70 70 69 71 72 71 72 72 73 74 74 74 75 76 76 74 74 76 77 73 73 72 72 73 73 74 75 74 73 75 75 75 74 74 71 68 66 65 63 61 63 67 63 62 63 64 65 66 64 64 67 70 71 70 71 72 72 73 72 72 73